Location: Azul
(36.7830°S, 59.8500°W)
Time: 01:57:57
(UTC-03:00)

ISS - Pass Details

Date: 15 June 2019
Orbit: 407 x 418 km, 51.6° (Epoch: 27 June)

Event Time Altitude Azimuth Distance (km) Brightness Sun altitude
Exits shadow 07:07:49 10° 298° (WNW) 1,487 -1.4 -12.2°
Maximum altitude 07:08:16 10° 306° (NW) 1,474 -1.3 -12.1°
Drops below altitude 10° 07:08:49 10° 316° (NW) 1,491 -1.2 -12.0°
Sets 07:12:34 0° 359° (N) 2,335 0.3 -11.3°
